| time (UTC) | temp F | wind direction | speed MPH | gust MPH | rain 1hr in | rain 24hr in | rain mn in | humidity % | barometer mb |
| 20260906073016 | 83 | 154 | 0.0 | 2.0 | 0.00 | 0.00 | 0.00 | 72 | 1011.4 |
| 20260906072516 | 84 | 146 | 1.0 | 3.0 | 0.00 | 0.00 | 0.00 | 72 | 1011.4 |
| 20260906072015 | 84 | 164 | 2.0 | 8.0 | 0.00 | 0.00 | 0.00 | 72 | 1011.5 |
| 20260906071515 | 84 | 180 | 1.0 | 8.0 | 0.00 | 0.00 | 0.00 | 71 | 1011.7 |
| 20260906065515 | 84 | 144 | 1.0 | 5.0 | 0.00 | 0.00 | 0.00 | 71 | 1011.7 |
| 20260906065015 | 84 | 219 | 5.0 | 5.0 | 0.00 | 0.00 | 0.00 | 70 | 1011.8 |
| 20260906064515 | 84 | 216 | 2.0 | 4.0 | 0.00 | 0.00 | 0.00 | 70 | 1011.9 |
| 20260906064016 | 84 | 257 | 0.0 | 3.0 | 0.00 | 0.00 | 0.00 | 70 | 1012.0 |
| 20260906063516 | 85 | 138 | 1.0 | 3.0 | 0.00 | 0.00 | 0.00 | 70 | 1012.1 |
| 20260906063015 | 85 | 198 | 1.0 | 4.0 | 0.00 | 0.00 | 0.00 | 70 | 1012.1 |
| 20260906062515 | 85 | 159 | 1.0 | 4.0 | 0.00 | 0.00 | 0.00 | 70 | 1012.0 |
| 20260906062015 | 85 | 227 | 1.0 | 5.0 | 0.00 | 0.00 | 0.00 | 69 | 1012.0 |
| 20260906061015 | 85 | 215 | 0.0 | 5.0 | 0.00 | 0.00 | 0.00 | 69 | 1012.1 |
| 20260906060515 | 85 | 133 | 5.0 | 5.0 | 0.00 | 0.00 | 0.00 | 69 | 1012.1 |
| 20260906060015 | 85 | 207 | 1.0 | 6.0 | 0.00 | 0.00 | 0.00 | 69 | 1012.1 |
| 20260906055515 | 85 | 119 | 4.0 | 6.0 | 0.00 | 0.00 | 0.00 | 69 | 1012.1 |
| 20260906055015 | 86 | 121 | 0.0 | 7.0 | 0.00 | 0.00 | 0.00 | 68 | 1012.1 |
| 20260906054515 | 86 | 168 | 4.0 | 7.0 | 0.00 | 0.00 | 0.00 | 68 | 1012.1 |
| 20260906054014 | 86 | 224 | 3.0 | 6.0 | 0.00 | 0.00 | 0.00 | 68 | 1012.0 |
| 20260906053514 | 86 | 232 | 5.0 | 5.0 | 0.00 | 0.00 | 0.00 | 67 | 1011.9 |
| 20260906053015 | 86 | 335 | 2.0 | 3.0 | 0.00 | 0.00 | 0.00 | 67 | 1011.9 |
| 20260906052515 | 86 | 124 | 0.0 | 3.0 | 0.00 | 0.00 | 0.00 | 66 | 1012.0 |
| 20260906052015 | 86 | 182 | 0.0 | 2.0 | 0.00 | 0.00 | 0.00 | 66 | 1012.1 |
| 20260906051515 | 86 | 153 | 1.0 | 3.0 | 0.00 | 0.00 | 0.00 | 66 | 1012.1 |
| 20260906050014 | 87 | 130 | 0.0 | 3.0 | 0.00 | 0.00 | 0.00 | 65 | 1012.1 |
| 20260906045514 | 87 | 235 | 1.0 | 5.0 | 0.00 | 0.00 | 0.00 | 65 | 1011.9 |
| 20260906045014 | 87 | 133 | 2.0 | 6.0 | 0.00 | 0.00 | 0.00 | 65 | 1011.9 |
| 20260906044514 | 87 | 213 | 3.0 | 6.0 | 0.00 | 0.00 | 0.00 | 64 | 1012.0 |
| 20260906044014 | 87 | 149 | 1.0 | 8.0 | 0.00 | 0.00 | 0.00 | 64 | 1012.0 |
| 20260906043514 | 87 | 140 | 1.0 | 8.0 | 0.00 | 0.00 | 0.00 | 64 | 1012.0 |
| 20260906043014 | 88 | 107 | 1.0 | 9.0 | 0.00 | 0.00 | 0.00 | 63 | 1012.2 |
| 20260906042514 | 88 | 124 | 7.0 | 9.0 | 0.00 | 0.00 | 0.00 | 63 | 1012.1 |
| 20260906042014 | 88 | 125 | 4.0 | 4.0 | 0.00 | 0.00 | 0.00 | 63 | 1012.1 |
| 20260906040514 | 88 | 133 | 3.0 | 5.0 | 0.00 | 0.00 | 0.00 | 62 | 1012.0 |
| 20260906035513 | 89 | 131 | 3.0 | 7.0 | 0.00 | 0.00 | 0.00 | 61 | 1011.9 |
| 20260906034513 | 89 | 139 | 1.0 | 4.0 | 0.00 | 0.00 | 0.00 | 60 | 1011.8 |
| 20260906034013 | 89 | 152 | 1.0 | 12.0 | 0.00 | 0.00 | 0.00 | 60 | 1011.8 |
| 20260906033514 | 89 | 161 | 5.0 | 12.0 | 0.00 | 0.00 | 0.00 | 60 | 1011.8 |
| 20260906033013 | 89 | 162 | 1.0 | 9.0 | 0.00 | 0.00 | 0.00 | 59 | 1011.8 |
| 20260906032513 | 90 | 133 | 2.0 | 9.0 | 0.00 | 0.00 | 0.00 | 59 | 1011.7 |
| 20260906032013 | 90 | 134 | 3.0 | 6.0 | 0.00 | 0.00 | 0.00 | 58 | 1011.7 |
| 20260906031513 | 90 | 201 | 4.0 | 7.0 | 0.00 | 0.00 | 0.00 | 57 | 1011.6 |
| 20260906030513 | 90 | 22 | 1.0 | 10.0 | 0.00 | 0.00 | 0.00 | 57 | 1011.4 |
| 20260906025513 | 91 | 146 | 3.0 | 4.0 | 0.00 | 0.00 | 0.00 | 55 | 1011.2 |
| 20260906025013 | 91 | 177 | 3.0 | 11.0 | 0.00 | 0.00 | 0.00 | 55 | 1011.0 |
| 20260906024513 | 91 | 123 | 5.0 | 11.0 | 0.00 | 0.00 | 0.00 | 55 | 1010.9 |
| 20260906024013 | 91 | 98 | 6.0 | 10.0 | 0.00 | 0.00 | 0.00 | 54 | 1010.7 |
| 20260906023512 | 91 | 144 | 6.0 | 6.0 | 0.00 | 0.00 | 0.00 | 53 | 1010.6 |
| 20260906023012 | 91 | 134 | 3.0 | 5.0 | 0.00 | 0.00 | 0.00 | 53 | 1010.5 |
| 20260906022512 | 92 | 133 | 2.0 | 4.0 | 0.00 | 0.00 | 0.00 | 53 | 1010.4 |
| 20260906021513 | 92 | 111 | 4.0 | 9.0 | 0.00 | 0.00 | 0.00 | 53 | 1009.9 |
| 20260906021012 | 92 | 107 | 3.0 | 7.0 | 0.00 | 0.00 | 0.00 | 53 | 1009.9 |
| 20260906020512 | 92 | 115 | 2.0 | 6.0 | 0.00 | 0.00 | 0.00 | 52 | 1009.7 |
| 20260906020012 | 92 | 130 | 2.0 | 6.0 | 0.00 | 0.00 | 0.00 | 52 | 1009.8 |
| 20260906015512 | 92 | 125 | 2.0 | 3.0 | 0.00 | 0.00 | 0.00 | 51 | 1009.7 |
| 20260906015012 | 93 | 133 | 2.0 | 3.0 | 0.00 | 0.00 | 0.00 | 51 | 1009.7 |
| 20260906013512 | 93 | 119 | 2.0 | 9.0 | 0.00 | 0.00 | 0.00 | 50 | 1009.6 |
| 20260906013012 | 93 | 101 | 0.0 | 9.0 | 0.00 | 0.00 | 0.00 | 50 | 1009.6 |
| 20260906012012 | 93 | 94 | 3.0 | 12.0 | 0.00 | 0.00 | 0.00 | 49 | 1009.4 |
| 20260906011512 | 92 | 87 | 4.0 | 7.0 | 0.00 | 0.00 | 0.00 | 49 | 1009.4 |
| 20260906011012 | 92 | 107 | 3.0 | 7.0 | 0.00 | 0.00 | 0.00 | 49 | 1009.4 |
| 20260906010512 | 92 | 120 | 3.0 | 3.0 | 0.00 | 0.00 | 0.00 | 49 | 1009.3 |
| 20260906010012 | 92 | 75 | 0.0 | 10.0 | 0.00 | 0.00 | 0.00 | 49 | 1009.3 |
| 20260906005512 | 92 | 133 | 3.0 | 10.0 | 0.00 | 0.00 | 0.00 | 49 | 1009.2 |
| 20260906005012 | 93 | 92 | 2.0 | 10.0 | 0.00 | 0.00 | 0.00 | 48 | 1009.4 |
| 20260906004012 | 95 | 188 | 5.0 | 11.0 | 0.00 | 0.00 | 0.00 | 45 | 1009.4 |
| 20260906003011 | 97 | 100 | 14.0 | 14.0 | 0.00 | 0.00 | 0.00 | 43 | 1009.4 |
| 20260906002511 | 97 | 101 | 8.0 | 11.0 | 0.00 | 0.00 | 0.00 | 42 | 1009.2 |
| 20260906001511 | 98 | 126 | 4.0 | 12.0 | 0.00 | 0.00 | 0.00 | 41 | 1009.1 |
| 20260906001011 | 98 | 155 | 7.0 | 12.0 | 0.00 | 0.00 | 0.00 | 40 | 1009.1 |
| 20260906000512 | 98 | 125 | 4.0 | 8.0 | 0.00 | 0.00 | 0.00 | 40 | 1009.1 |
| 20260906000011 | 99 | 145 | 3.0 | 7.0 | 0.00 | 0.00 | 0.00 | 39 | 1009.1 |
| 20260905235511 | 99 | 114 | 3.0 | 9.0 | 0.00 | 0.00 | 0.00 | 39 | 1009.0 |
| 20260905235011 | 99 | 294 | 3.0 | 10.0 | 0.00 | 0.00 | 0.00 | 38 | 1009.0 |
| 20260905234511 | 100 | 61 | 9.0 | 10.0 | 0.00 | 0.00 | 0.00 | 38 | 1009.1 |
| 20260905234011 | 100 | 104 | 6.0 | 7.0 | 0.00 | 0.00 | 0.00 | 38 | 1009.0 |
| 20260905233011 | 100 | 113 | 1.0 | 7.0 | 0.00 | 0.00 | 0.00 | 38 | 1008.9 |
| 20260905232511 | 100 | 253 | 0.0 | 1.0 | 0.00 | 0.00 | 0.00 | 38 | 1008.9 |
| 20260905232011 | 100 | 141 | 0.0 | 3.0 | 0.00 | 0.00 | 0.00 | 37 | 1008.9 |
| 20260905231011 | 100 | 228 | 1.0 | 4.0 | 0.00 | 0.00 | 0.00 | 38 | 1009.0 |
| 20260905230011 | 99 | 241 | 2.0 | 3.0 | 0.00 | 0.00 | 0.00 | 38 | 1008.9 |
| 20260905225011 | 99 | 123 | 1.0 | 2.0 | 0.00 | 0.00 | 0.00 | 39 | 1008.9 |
| 20260905224511 | 99 | 107 | 2.0 | 3.0 | 0.00 | 0.00 | 0.00 | 39 | 1008.9 |
| 20260905224010 | 99 | 113 | 0.0 | 4.0 | 0.00 | 0.00 | 0.00 | 39 | 1008.9 |
| 20260905223511 | 99 | 128 | 4.0 | 4.0 | 0.00 | 0.00 | 0.00 | 39 | 1008.9 |
| 20260905223010 | 99 | 90 | 0.0 | 9.0 | 0.00 | 0.00 | 0.00 | 38 | 1008.9 |
| 20260905222510 | 100 | 105 | 4.0 | 9.0 | 0.00 | 0.00 | 0.00 | 38 | 1009.0 |
| 20260905222010 | 100 | 75 | 3.0 | 5.0 | 0.00 | 0.00 | 0.00 | 37 | 1009.0 |
| 20260905221510 | 100 | 244 | 0.0 | 1.0 | 0.00 | 0.00 | 0.00 | 37 | 1009.1 |
| 20260905221010 | 100 | 94 | 1.0 | 4.0 | 0.00 | 0.00 | 0.00 | 37 | 1009.2 |
| 20260905220510 | 100 | 192 | 2.0 | 6.0 | 0.00 | 0.00 | 0.00 | 37 | 1009.2 |
| 20260905220010 | 101 | 85 | 3.0 | 6.0 | 0.00 | 0.00 | 0.00 | 37 | 1009.2 |
| 20260905215510 | 100 | 338 | 1.0 | 3.0 | 0.00 | 0.00 | 0.00 | 37 | 1009.1 |
| 20260905215010 | 101 | 228 | 2.0 | 5.0 | 0.00 | 0.00 | 0.00 | 36 | 1009.1 |
| 20260905214510 | 101 | 113 | 2.0 | 6.0 | 0.00 | 0.00 | 0.00 | 37 | 1009.2 |
| 20260905214010 | 101 | 107 | 2.0 | 6.0 | 0.00 | 0.00 | 0.00 | 37 | 1009.1 |
| 20260905213510 | 100 | 250 | 0.0 | 5.0 | 0.00 | 0.00 | 0.00 | 37 | 1009.1 |
| 20260905213010 | 100 | 126 | 0.0 | 7.0 | 0.00 | 0.00 | 0.00 | 37 | 1009.2 |
| 20260905212509 | 100 | 98 | 1.0 | 7.0 | 0.00 | 0.00 | 0.00 | 37 | 1009.2 |
| 20260905212009 | 100 | 115 | 2.0 | 2.0 | 0.00 | 0.00 | 0.00 | 37 | 1009.2 |
| 20260905211509 | 100 | 107 | 1.0 | 5.0 | 0.00 | 0.00 | 0.00 | 37 | 1009.2 |
| 20260905211009 | 100 | 132 | 2.0 | 5.0 | 0.00 | 0.00 | 0.00 | 37 | 1009.4 |
| 20260905210510 | 100 | 236 | 1.0 | 5.0 | 0.00 | 0.00 | 0.00 | 37 | 1009.4 |
| 20260905210009 | 100 | 155 | 3.0 | 4.0 | 0.00 | 0.00 | 0.00 | 38 | 1009.5 |
| 20260905205509 | 100 | 311 | 0.0 | 4.0 | 0.00 | 0.00 | 0.00 | 38 | 1009.5 |
| 20260905205009 | 100 | 319 | 3.0 | 5.0 | 0.00 | 0.00 | 0.00 | 38 | 1009.6 |
| 20260905204509 | 99 | 301 | 4.0 | 6.0 | 0.00 | 0.00 | 0.00 | 39 | 1009.7 |
| 20260905204439 | 99 | 315 | 2.0 | 8.0 | 0.00 | 0.00 | 0.00 | 39 | 1010.0 |
| 20260905202509 | 99 | 120 | 1.0 | 4.0 | 0.00 | 0.00 | 0.00 | 39 | 1010.2 |
| 20260905202009 | 99 | 72 | 1.0 | 4.0 | 0.00 | 0.00 | 0.00 | 39 | 1010.3 |
| 20260905201509 | 99 | 98 | 2.0 | 7.0 | 0.00 | 0.00 | 0.00 | 40 | 1010.4 |
| 20260905201009 | 98 | 186 | 2.0 | 9.0 | 0.00 | 0.00 | 0.00 | 40 | 1010.5 |
| 20260905200509 | 99 | 106 | 6.0 | 9.0 | 0.00 | 0.00 | 0.00 | 41 | 1010.5 |
| 20260905200009 | 98 | 139 | 7.0 | 8.0 | 0.00 | 0.00 | 0.00 | 42 | 1010.7 |
| 20260905195509 | 98 | 118 | 3.0 | 7.0 | 0.00 | 0.00 | 0.00 | 43 | 1010.7 |
| 20260905195008 | 98 | 232 | 3.0 | 5.0 | 0.00 | 0.00 | 0.00 | 44 | 1010.7 |
| 20260905194509 | 98 | 326 | 3.0 | 6.0 | 0.00 | 0.00 | 0.00 | 44 | 1010.8 |
| 20260905194008 | 98 | 300 | 5.0 | 10.0 | 0.00 | 0.00 | 0.00 | 44 | 1010.9 |
| 20260905193508 | 98 | 162 | 10.0 | 10.0 | 0.00 | 0.00 | 0.00 | 44 | 1011.0 |
| 20260905193009 | 98 | 144 | 1.0 | 4.0 | 0.00 | 0.00 | 0.00 | 45 | 1011.1 |
| 20260905192508 | 98 | 221 | 1.0 | 7.0 | 0.00 | 0.00 | 0.00 | 45 | 1011.1 |
| 20260905192008 | 98 | 119 | 0.0 | 7.0 | 0.00 | 0.00 | 0.00 | 45 | 1011.2 |
| 20260905191508 | 97 | 167 | 1.0 | 9.0 | 0.00 | 0.00 | 0.00 | 47 | 1011.2 |
| 20260905190008 | 97 | 201 | 2.0 | 6.0 | 0.00 | 0.00 | 0.00 | 48 | 1011.5 |
| 20260905185507 | 96 | 213 | 2.0 | 6.0 | 0.00 | 0.00 | 0.00 | 48 | 1011.6 |
| 20260905185007 | 96 | 119 | 1.0 | 5.0 | 0.00 | 0.00 | 0.00 | 48 | 1011.7 |
| 20260905184507 | 96 | 113 | 4.0 | 6.0 | 0.00 | 0.00 | 0.00 | 49 | 1011.9 |
| 20260905184007 | 95 | 108 | 3.0 | 6.0 | 0.00 | 0.00 | 0.00 | 49 | 1011.9 |
| 20260905183507 | 95 | 228 | 2.0 | 4.0 | 0.00 | 0.00 | 0.00 | 51 | 1011.9 |
| 20260905183007 | 95 | 309 | 2.0 | 7.0 | 0.00 | 0.00 | 0.00 | 51 | 1012.0 |
| 20260905182507 | 95 | 190 | 5.0 | 7.0 | 0.00 | 0.00 | 0.00 | 51 | 1012.2 |
| 20260905182007 | 95 | 197 | 3.0 | 4.0 | 0.00 | 0.00 | 0.00 | 51 | 1012.3 |
| 20260905181507 | 94 | 155 | 1.0 | 6.0 | 0.00 | 0.00 | 0.00 | 51 | 1012.4 |
| 20260905181007 | 94 | 159 | 5.0 | 8.0 | 0.00 | 0.00 | 0.00 | 52 | 1012.5 |
| 20260905180507 | 94 | 111 | 3.0 | 8.0 | 0.00 | 0.00 | 0.00 | 53 | 1012.7 |
| 20260905175507 | 93 | 186 | 4.0 | 8.0 | 0.00 | 0.00 | 0.00 | 56 | 1012.8 |
| 20260905175007 | 93 | 171 | 5.0 | 8.0 | 0.00 | 0.00 | 0.00 | 57 | 1012.9 |
| 20260905174507 | 93 | 302 | 3.0 | 8.0 | 0.00 | 0.00 | 0.00 | 57 | 1013.0 |
| 20260905173507 | 93 | 178 | 4.0 | 6.0 | 0.00 | 0.00 | 0.00 | 59 | 1013.3 |
| 20260905173006 | 92 | 177 | 2.0 | 6.0 | 0.00 | 0.00 | 0.00 | 59 | 1013.3 |
| 20260905172507 | 92 | 347 | 1.0 | 5.0 | 0.00 | 0.00 | 0.00 | 61 | 1013.3 |
| 20260905172006 | 92 | 312 | 0.0 | 4.0 | 0.00 | 0.00 | 0.00 | 62 | 1013.4 |
| 20260905170006 | 91 | 276 | 2.0 | 4.0 | 0.00 | 0.00 | 0.00 | 64 | 1013.5 |
| 20260905165006 | 90 | 236 | 5.0 | 10.0 | 0.00 | 0.00 | 0.00 | 65 | 1013.5 |
| 20260905164506 | 90 | 92 | 2.0 | 7.0 | 0.00 | 0.00 | 0.00 | 66 | 1013.6 |
| 20260905164006 | 90 | 130 | 3.0 | 8.0 | 0.00 | 0.00 | 0.00 | 66 | 1013.6 |
| 20260905163006 | 89 | 96 | 1.0 | 8.0 | 0.00 | 0.00 | 0.00 | 68 | 1013.7 |
| 20260905162506 | 89 | 143 | 1.0 | 4.0 | 0.00 | 0.00 | 0.00 | 70 | 1013.8 |
| 20260905162006 | 88 | 172 | 2.0 | 5.0 | 0.00 | 0.00 | 0.00 | 70 | 1013.8 |
| 20260905161506 | 88 | 224 | 3.0 | 7.0 | 0.00 | 0.00 | 0.00 | 70 | 1013.8 |
| 20260905161006 | 88 | 244 | 2.0 | 7.0 | 0.00 | 0.00 | 0.00 | 70 | 1013.8 |
| 20260905155506 | 87 | 200 | 2.0 | 4.0 | 0.00 | 0.00 | 0.00 | 72 | 1013.8 |
| 20260905155006 | 87 | 298 | 0.0 | 8.0 | 0.00 | 0.00 | 0.00 | 73 | 1013.8 |
| 20260905154005 | 87 | 192 | 1.0 | 5.0 | 0.00 | 0.00 | 0.00 | 74 | 1013.8 |
| 20260905153505 | 87 | 198 | 1.0 | 5.0 | 0.00 | 0.00 | 0.00 | 74 | 1013.8 |
| 20260905153005 | 86 | 136 | 2.0 | 5.0 | 0.00 | 0.00 | 0.00 | 76 | 1013.8 |
| 20260905152505 | 86 | 347 | 2.0 | 4.0 | 0.00 | 0.00 | 0.00 | 77 | 1013.7 |
| 20260905152005 | 85 | 289 | 2.0 | 5.0 | 0.00 | 0.00 | 0.00 | 77 | 1013.8 |
| 20260905151505 | 85 | 192 | 5.0 | 5.0 | 0.00 | 0.00 | 0.00 | 77 | 1013.9 |
| 20260905151005 | 85 | 167 | 1.0 | 3.0 | 0.00 | 0.01 | 0.00 | 78 | 1013.9 |
| 20260905150505 | 84 | 191 | 3.0 | 4.0 | 0.00 | 0.01 | 0.00 | 78 | 1013.8 |
| 20260905150005 | 84 | 269 | 3.0 | 4.0 | 0.00 | 0.01 | 0.00 | 78 | 1013.8 |
| 20260905145504 | 84 | 196 | 2.0 | 4.0 | 0.00 | 0.02 | 0.00 | 79 | 1013.8 |
| 20260905145005 | 84 | 271 | 2.0 | 3.0 | 0.00 | 0.02 | 0.00 | 79 | 1013.8 |
| 20260905144505 | 84 | 323 | 3.0 | 3.0 | 0.00 | 0.02 | 0.00 | 79 | 1013.8 |
| 20260905144005 | 84 | 126 | 0.0 | 1.0 | 0.00 | 0.02 | 0.00 | 79 | 1013.8 |
| 20260905143504 | 84 | 158 | 0.0 | 2.0 | 0.00 | 0.02 | 0.00 | 80 | 1013.7 |
| 20260905143004 | 84 | 227 | 1.0 | 5.0 | 0.00 | 0.02 | 0.00 | 80 | 1013.8 |
| 20260905142504 | 83 | 181 | 2.0 | 5.0 | 0.00 | 0.02 | 0.00 | 80 | 1013.7 |
| 20260905142004 | 83 | 225 | 0.0 | 3.0 | 0.00 | 0.02 | 0.00 | 80 | 1013.7 |
| 20260905141534 | 83 | 136 | 2.0 | 3.0 | 0.00 | 0.02 | 0.00 | 80 | 1013.6 |
| 20260905140034 | 82 | 157 | 2.0 | 3.0 | 0.00 | 0.02 | 0.00 | 81 | 1013.5 |
| 20260905135534 | 81 | 130 | 0.0 | 1.0 | 0.00 | 0.02 | 0.00 | 81 | 1013.5 |
| 20260905135034 | 81 | 178 | 1.0 | 1.0 | 0.00 | 0.02 | 0.00 | 81 | 1013.5 |
| 20260905134534 | 81 | 134 | 0.0 | 0.0 | 0.00 | 0.02 | 0.00 | 81 | 1013.5 |
| 20260905134034 | 81 | 124 | 0.0 | 3.0 | 0.00 | 0.02 | 0.00 | 81 | 1013.4 |
| 20260905133034 | 80 | 124 | 0.0 | 4.0 | 0.00 | 0.02 | 0.00 | 81 | 1013.3 |
| 20260905132534 | 80 | 142 | 3.0 | 4.0 | 0.00 | 0.02 | 0.00 | 81 | 1013.3 |
| 20260905132034 | 80 | 145 | 0.0 | 0.0 | 0.00 | 0.02 | 0.00 | 81 | 1013.2 |
| 20260905131534 | 80 | 104 | 0.0 | 3.0 | 0.00 | 0.02 | 0.00 | 81 | 1013.2 |
| 20260905131034 | 79 | 104 | 3.0 | 3.0 | 0.00 | 0.02 | 0.00 | 82 | 1013.1 |
| 20260905130534 | 79 | 113 | 0.0 | 3.0 | 0.00 | 0.02 | 0.00 | 82 | 1013.2 |
| 20260905130034 | 79 | 142 | 0.0 | 0.0 | 0.00 | 0.02 | 0.00 | 82 | 1013.0 |
| 20260905125533 | 78 | 142 | 0.0 | 0.0 | 0.00 | 0.02 | 0.00 | 82 | 1013.0 |
| 20260905125034 | 78 | 142 | 0.0 | 0.0 | 0.00 | 0.02 | 0.00 | 82 | 1012.9 |
| 20260905124533 | 78 | 142 | 0.0 | 0.0 | 0.00 | 0.02 | 0.00 | 82 | 1012.8 |
| 20260905124034 | 78 | 142 | 0.0 | 0.0 | 0.00 | 0.02 | 0.00 | 82 | 1012.7 |
| 20260905123033 | 78 | 142 | 0.0 | 0.0 | 0.00 | 0.02 | 0.00 | 82 | 1012.8 |
| 20260905122533 | 78 | 142 | 0.0 | 0.0 | 0.00 | 0.02 | 0.00 | 82 | 1012.8 |
| 20260905122033 | 78 | 142 | 0.0 | 0.0 | 0.00 | 0.02 | 0.00 | 82 | 1012.7 |
| 20260905121534 | 78 | 142 | 0.0 | 0.0 | 0.00 | 0.02 | 0.00 | 82 | 1012.7 |
| 20260905121033 | 78 | 142 | 0.0 | 0.0 | 0.00 | 0.02 | 0.00 | 82 | 1012.6 |
| 20260905120033 | 78 | 142 | 0.0 | 0.0 | 0.00 | 0.02 | 0.00 | 82 | 1012.6 |
| 20260905115533 | 78 | 142 | 0.0 | 0.0 | 0.00 | 0.02 | 0.00 | 82 | 1012.5 |
| 20260905115033 | 78 | 142 | 0.0 | 0.0 | 0.00 | 0.02 | 0.00 | 82 | 1012.4 |
| 20260905114533 | 78 | 142 | 0.0 | 0.0 | 0.00 | 0.02 | 0.00 | 82 | 1012.5 |
| 20260905114033 | 78 | 142 | 0.0 | 0.0 | 0.00 | 0.02 | 0.00 | 82 | 1012.4 |
| 20260905113533 | 78 | 142 | 0.0 | 0.0 | 0.00 | 0.02 | 0.00 | 82 | 1012.4 |
| 20260905112533 | 78 | 142 | 0.0 | 0.0 | 0.00 | 0.02 | 0.00 | 82 | 1012.4 |
| 20260905112032 | 78 | 142 | 0.0 | 0.0 | 0.00 | 0.02 | 0.00 | 81 | 1012.4 |
| 20260905111532 | 78 | 142 | 0.0 | 0.0 | 0.00 | 0.02 | 0.00 | 81 | 1012.3 |
| 20260905111033 | 78 | 142 | 0.0 | 0.0 | 0.00 | 0.02 | 0.00 | 81 | 1012.2 |
| 20260905110533 | 78 | 142 | 0.0 | 0.0 | 0.00 | 0.02 | 0.00 | 81 | 1012.2 |
| 20260905110032 | 78 | 142 | 0.0 | 0.0 | 0.00 | 0.02 | 0.00 | 81 | 1012.2 |
| 20260905105532 | 78 | 142 | 0.0 | 0.0 | 0.00 | 0.02 | 0.00 | 81 | 1012.2 |
| 20260905105032 | 78 | 142 | 0.0 | 0.0 | 0.00 | 0.02 | 0.00 | 81 | 1012.1 |
| 20260905104032 | 78 | 142 | 0.0 | 0.0 | 0.00 | 0.02 | 0.00 | 81 | 1012.1 |
| 20260905103532 | 78 | 142 | 0.0 | 0.0 | 0.00 | 0.02 | 0.00 | 81 | 1012.1 |
| 20260905103032 | 78 | 142 | 0.0 | 0.0 | 0.00 | 0.02 | 0.00 | 81 | 1012.1 |
| 20260905102532 | 78 | 142 | 0.0 | 0.0 | 0.00 | 0.02 | 0.00 | 81 | 1012.1 |
| 20260905102032 | 78 | 142 | 0.0 | 0.0 | 0.00 | 0.02 | 0.00 | 81 | 1012.2 |
| 20260905101531 | 78 | 142 | 0.0 | 0.0 | 0.00 | 0.02 | 0.00 | 81 | 1012.2 |
| 20260905101032 | 78 | 142 | 0.0 | 0.0 | 0.00 | 0.02 | 0.00 | 81 | 1012.1 |
| 20260905100532 | 78 | 142 | 0.0 | 0.0 | 0.00 | 0.02 | 0.00 | 81 | 1012.0 |
| 20260905100031 | 79 | 142 | 0.0 | 0.0 | 0.00 | 0.02 | 0.00 | 81 | 1012.0 |
| 20260905095531 | 79 | 142 | 0.0 | 0.0 | 0.00 | 0.02 | 0.00 | 81 | 1011.9 |
| 20260905095002 | 79 | 142 | 0.0 | 0.0 | 0.00 | 0.02 | 0.00 | 81 | 1011.9 |
| 20260905094531 | 79 | 142 | 0.0 | 0.0 | 0.00 | 0.02 | 0.00 | 80 | 1011.9 |
| 20260905094032 | 79 | 142 | 0.0 | 0.0 | 0.00 | 0.02 | 0.00 | 80 | 1011.9 |
| 20260905093031 | 79 | 142 | 0.0 | 0.0 | 0.00 | 0.02 | 0.00 | 80 | 1011.9 |
| 20260905092531 | 79 | 142 | 0.0 | 0.0 | 0.00 | 0.02 | 0.00 | 80 | 1011.9 |
| 20260905092031 | 79 | 142 | 0.0 | 0.0 | 0.00 | 0.02 | 0.00 | 80 | 1011.9 |
| 20260905090531 | 80 | 125 | 0.0 | 0.0 | 0.00 | 0.02 | 0.00 | 80 | 1012.0 |
| 20260905090031 | 80 | 233 | 0.0 | 0.0 | 0.00 | 0.02 | 0.00 | 80 | 1012.0 |
| 20260905085531 | 80 | 204 | 0.0 | 0.0 | 0.00 | 0.02 | 0.00 | 80 | 1011.9 |
| 20260905085031 | 80 | 200 | 0.0 | 2.0 | 0.00 | 0.02 | 0.00 | 80 | 1012.0 |
| 20260905084031 | 80 | 215 | 0.0 | 0.0 | 0.00 | 0.02 | 0.00 | 80 | 1012.0 |
| 20260905083531 | 80 | 207 | 0.0 | 1.0 | 0.00 | 0.02 | 0.00 | 80 | 1012.0 |
| 20260905083030 | 80 | 218 | 0.0 | 2.0 | 0.00 | 0.02 | 0.00 | 80 | 1012.1 |
| 20260905082531 | 80 | 215 | 1.0 | 2.0 | 0.00 | 0.02 | 0.00 | 80 | 1012.1 |
| 20260905081530 | 80 | 157 | 0.0 | 3.0 | 0.00 | 0.02 | 0.00 | 80 | 1012.2 |
| 20260905081030 | 80 | 215 | 1.0 | 3.0 | 0.00 | 0.02 | 0.00 | 80 | 1012.2 |
| 20260905080530 | 80 | 242 | 0.0 | 1.0 | 0.00 | 0.02 | 0.00 | 79 | 1012.3 |
| 20260905080030 | 80 | 197 | 1.0 | 1.0 | 0.00 | 0.02 | 0.00 | 79 | 1012.3 |
| 20260905075030 | 80 | 222 | 0.0 | 0.0 | 0.00 | 0.02 | 0.00 | 79 | 1012.3 |
| 20260905073530 | 80 | 221 | 0.0 | 1.0 | 0.00 | 0.02 | 0.00 | 79 | 1012.3 |